Location: Sun City Center
(27.6996°N, 82.3528°W)
Time: 00:43:40
(UTC-04:00)

Cosmos 2084 Rocket - Visible Passes

Search period start: 27 August 2016 00:00
Search period end: 06 September 2016 00:00
Orbit: 498 x 687 km, 62.8° (Epoch: 26 August)

Date Brightness Start Highest point End Pass type
(mag) Time Alt. Az. Time Alt. Az. Time Alt. Az.
27 Aug 6.1 06:20:19 10° SSE 06:23:02 17° ESE 06:25:41 10° ENE visible
28 Aug 4.9 06:27:55 10° S 06:31:40 35° ESE 06:35:16 10° NE visible
29 Aug 3.4 06:36:17 10° SSW 06:40:21 80° ESE 06:44:15 10° NNE visible
31 Aug 5.6 05:16:22 13° SSE 05:18:34 19° ESE 05:21:26 10° ENE visible
01 Sep 4.4 05:25:53 30° SSE 05:27:13 40° ESE 05:30:53 10° NE visible
02 Sep 3.1 05:35:15 62° SSW 05:35:54 90° ESE 05:39:48 10° NNE visible
03 Sep 3.7 05:44:31 41° WNW 05:44:38 41° WNW 05:48:19 10° NNE visible
04 Sep 6.6 04:17:03 10° ENE 04:17:03 10° ENE 04:17:08 10° ENE visible
04 Sep 4.8 05:53:39 21° NW 05:53:39 21° NW 05:56:25 10° N visible
05 Sep 6.4 04:26:05 12° NE 04:26:05 12° NE 04:26:29 10° NE visible
05 Sep 5.5 06:02:41 11° NW 06:02:41 11° NW 06:03:19 10° NW visible
